����������;��������(kVARh)
2018-08-27 00:00;14,35
2018-08-27 00:15;14,85
2018-08-27 00:30;12,75
2018-08-27 00:45;9,8
2018-08-27 01:00;9,85
2018-08-27 01:15;10,5
2018-08-27 01:30;11,3
2018-08-27 01:45;11,55
2018-08-27 02:00;11,25
2018-08-27 02:15;12,8
2018-08-27 02:30;11,95
2018-08-27 02:45;13,6
2018-08-27 03:00;12,9
2018-08-27 03:15;13,6
2018-08-27 03:30;13,45
2018-08-27 03:45;16,8
2018-08-27 04:00;26,35
2018-08-27 04:15;25,4
2018-08-27 04:30;24,6
2018-08-27 04:45;26,15
2018-08-27 05:00;25,7
2018-08-27 05:15;26,55
2018-08-27 05:30;25,55
2018-08-27 05:45;25,2
2018-08-27 06:00;25,5
2018-08-27 06:15;22,2
2018-08-27 06:30;24,3
2018-08-27 06:45;25
2018-08-27 07:00;22,35
2018-08-27 07:15;23,4
2018-08-27 07:30;58,9
2018-08-27 07:45;37,2
2018-08-27 08:00;45,95
2018-08-27 08:15;46,15
2018-08-27 08:30;72,7
2018-08-27 08:45;73,25
2018-08-27 09:00;57,15
2018-08-27 09:15;57,9
2018-08-27 09:30;62
2018-08-27 09:45;72,2
2018-08-27 10:00;63,45
2018-08-27 10:15;68,7
2018-08-27 10:30;68,1
2018-08-27 10:45;68,95
2018-08-27 11:00;69
2018-08-27 11:15;84,35
2018-08-27 11:30;88,95
2018-08-27 11:45;72,25
2018-08-27 12:00;81,15
2018-08-27 12:15;77,05
2018-08-27 12:30;85,2
2018-08-27 12:45;76,95
2018-08-27 13:00;83,55
2018-08-27 13:15;87
2018-08-27 13:30;71,95
2018-08-27 13:45;85,75
2018-08-27 14:00;80
2018-08-27 14:15;73,7
2018-08-27 14:30;80,1
2018-08-27 14:45;81,8
2018-08-27 15:00;81,5
2018-08-27 15:15;78,55
2018-08-27 15:30;71,9
2018-08-27 15:45;70,75
2018-08-27 16:00;70,3
2018-08-27 16:15;70,6
2018-08-27 16:30;71,3
2018-08-27 16:45;70
2018-08-27 17:00;70,75
2018-08-27 17:15;69,15
2018-08-27 17:30;56,95
2018-08-27 17:45;60,9
2018-08-27 18:00;52,9
2018-08-27 18:15;47,05
2018-08-27 18:30;49,35
2018-08-27 18:45;49,9
2018-08-27 19:00;45,4
2018-08-27 19:15;36,85
2018-08-27 19:30;35,95
2018-08-27 19:45;35,05
2018-08-27 20:00;34,45
2018-08-27 20:15;26,85
2018-08-27 20:30;22,3
2018-08-27 20:45;18,7
2018-08-27 21:00;12,1
2018-08-27 21:15;14,95
2018-08-27 21:30;17,2
2018-08-27 21:45;12,25
2018-08-27 22:00;11,1
2018-08-27 22:15;8,95
2018-08-27 22:30;8,1
2018-08-27 22:45;11,25
2018-08-27 23:00;11,45
2018-08-27 23:15;10,1
2018-08-27 23:30;9,65
2018-08-27 23:45;9
2018-08-28 00:00;4,95
2018-08-28 00:15;0,05
2018-08-28 00:30;0
2018-08-28 00:45;0,05
2018-08-28 01:00;0,05
2018-08-28 01:15;0
2018-08-28 01:30;0,1
2018-08-28 01:45;0,55
2018-08-28 02:00;0,25
2018-08-28 02:15;0
2018-08-28 02:30;0
2018-08-28 02:45;0,1
2018-08-28 03:00;0,15
2018-08-28 03:15;0,1
2018-08-28 03:30;0,9
2018-08-28 03:45;1,35
2018-08-28 04:00;1,6
2018-08-28 04:15;1,5
2018-08-28 04:30;10,1
2018-08-28 04:45;12,9
2018-08-28 05:00;13,2
2018-08-28 05:15;13,35
2018-08-28 05:30;13,75
2018-08-28 05:45;13,15
2018-08-28 06:00;12,7
2018-08-28 06:15;12,05
2018-08-28 06:30;10,7
2018-08-28 06:45;29,55
2018-08-28 07:00;31,2
2018-08-28 07:15;27,7
2018-08-28 07:30;59,25
2018-08-28 07:45;56,3
2018-08-28 08:00;59
2018-08-28 08:15;39,3
2018-08-28 08:30;41,05
2018-08-28 08:45;47,6
2018-08-28 09:00;46,4
2018-08-28 09:15;46,35
2018-08-28 09:30;49
2018-08-28 09:45;52
2018-08-28 10:00;53,8
2018-08-28 10:15;53,5
2018-08-28 10:30;58,6
2018-08-28 10:45;66,9
2018-08-28 11:00;66,1
2018-08-28 11:15;68,8
2018-08-28 11:30;76,85
2018-08-28 11:45;81,6
2018-08-28 12:00;80,95
2018-08-28 12:15;73,4
2018-08-28 12:30;86,4
2018-08-28 12:45;73,6
2018-08-28 13:00;78,3
2018-08-28 13:15;72,35
2018-08-28 13:30;81,65
2018-08-28 13:45;84,05
2018-08-28 14:00;69,85
2018-08-28 14:15;73,05
2018-08-28 14:30;67,8
2018-08-28 14:45;63,2
2018-08-28 15:00;65,4
2018-08-28 15:15;63,15
2018-08-28 15:30;57,6
2018-08-28 15:45;61,4
2018-08-28 16:00;61
2018-08-28 16:15;58,3
2018-08-28 16:30;55,45
2018-08-28 16:45;54,05
2018-08-28 17:00;51,4
2018-08-28 17:15;45,25
2018-08-28 17:30;47,7
2018-08-28 17:45;48
2018-08-28 18:00;40,95
2018-08-28 18:15;34,35
2018-08-28 18:30;37,4
2018-08-28 18:45;30,75
2018-08-28 19:00;26,5
2018-08-28 19:15;21
2018-08-28 19:30;20,4
2018-08-28 19:45;19,7
2018-08-28 20:00;19,4
2018-08-28 20:15;18,55
2018-08-28 20:30;16,7
2018-08-28 20:45;15,95
2018-08-28 21:00;16,8
2018-08-28 21:15;14,2
2018-08-28 21:30;13,05
2018-08-28 21:45;12,1
2018-08-28 22:00;4,1
2018-08-28 22:15;1,75
2018-08-28 22:30;1,55
2018-08-28 22:45;0,25
2018-08-28 23:00;0,3
2018-08-28 23:15;0,2
2018-08-28 23:30;0,6
2018-08-28 23:45;0,35
2018-08-29 00:00;1,4
2018-08-29 00:15;0
2018-08-29 00:30;0
2018-08-29 00:45;0,05
2018-08-29 01:00;0,1
2018-08-29 01:15;0,05
2018-08-29 01:30;0,05
2018-08-29 01:45;8,25
2018-08-29 02:00;7,55
2018-08-29 02:15;8,5
2018-08-29 02:30;10,1
2018-08-29 02:45;8,2
2018-08-29 03:00;8,55
2018-08-29 03:15;8,15
2018-08-29 03:30;7,7
2018-08-29 03:45;8,35
2018-08-29 04:00;8,5
2018-08-29 04:15;7,2
2018-08-29 04:30;9,45
2018-08-29 04:45;7,6
2018-08-29 05:00;8,3
2018-08-29 05:15;9,3
2018-08-29 05:30;10,05
2018-08-29 05:45;9,8
2018-08-29 06:00;9,35
2018-08-29 06:15;6,8
2018-08-29 06:30;7,25
2018-08-29 06:45;7,1
2018-08-29 07:00;9,35
2018-08-29 07:15;25,6
2018-08-29 07:30;57,95
2018-08-29 07:45;49,3
2018-08-29 08:00;45,85
2018-08-29 08:15;24,85
2018-08-29 08:30;40,65
2018-08-29 08:45;37,2
2018-08-29 09:00;31,2
2018-08-29 09:15;44,95
2018-08-29 09:30;36,3
2018-08-29 09:45;39,85
2018-08-29 10:00;42,7
2018-08-29 10:15;43,4
2018-08-29 10:30;40,6
2018-08-29 10:45;42,6
2018-08-29 11:00;44,1
2018-08-29 11:15;50,8
2018-08-29 11:30;81,85
2018-08-29 11:45;70,9
2018-08-29 12:00;70,15
2018-08-29 12:15;62,5
2018-08-29 12:30;66,15
2018-08-29 12:45;65,9
2018-08-29 13:00;76,75
2018-08-29 13:15;61,6
2018-08-29 13:30;72,55
2018-08-29 13:45;71,45
2018-08-29 14:00;52,3
2018-08-29 14:15;51,3
2018-08-29 14:30;49,25
2018-08-29 14:45;51,5
2018-08-29 15:00;73,2
2018-08-29 15:15;60,05
2018-08-29 15:30;61,95
2018-08-29 15:45;44,15
2018-08-29 16:00;52,5
2018-08-29 16:15;57
2018-08-29 16:30;47,7
2018-08-29 16:45;46,45
2018-08-29 17:00;47,75
2018-08-29 17:15;46,8
2018-08-29 17:30;37,95
2018-08-29 17:45;31,25
2018-08-29 18:00;27,7
2018-08-29 18:15;25
2018-08-29 18:30;25,3
2018-08-29 18:45;22,7
2018-08-29 19:00;18,35
2018-08-29 19:15;19,95
2018-08-29 19:30;19,15
2018-08-29 19:45;20,3
2018-08-29 20:00;18,85
2018-08-29 20:15;16,3
2018-08-29 20:30;14
2018-08-29 20:45;13,05
2018-08-29 21:00;9,35
2018-08-29 21:15;9,15
2018-08-29 21:30;8,1
2018-08-29 21:45;4,85
2018-08-29 22:00;3,75
2018-08-29 22:15;1,65
2018-08-29 22:30;2,2
2018-08-29 22:45;1,9
2018-08-29 23:00;3,1
2018-08-29 23:15;3,75
2018-08-29 23:30;3,9
2018-08-29 23:45;1,6
2018-08-30 00:00;0
2018-08-30 00:15;0
2018-08-30 00:30;0
2018-08-30 00:45;0
2018-08-30 01:00;0
2018-08-30 01:15;0
2018-08-30 01:30;0
2018-08-30 01:45;0
2018-08-30 02:00;1,65
2018-08-30 02:15;5,5
2018-08-30 02:30;5,2
2018-08-30 02:45;5,2
2018-08-30 03:00;6,2
2018-08-30 03:15;6,75
2018-08-30 03:30;6,45
2018-08-30 03:45;8,3
2018-08-30 04:00;7,5
2018-08-30 04:15;7,3
2018-08-30 04:30;7,3
2018-08-30 04:45;6,15
2018-08-30 05:00;7,95
2018-08-30 05:15;13,2
2018-08-30 05:30;13,05
2018-08-30 05:45;12,9
2018-08-30 06:00;14,7
2018-08-30 06:15;12,05
2018-08-30 06:30;11,15
2018-08-30 06:45;11,7
2018-08-30 07:00;13
2018-08-30 07:15;15,55
2018-08-30 07:30;45,4
2018-08-30 07:45;51,6
2018-08-30 08:00;65,65
2018-08-30 08:15;45,9
2018-08-30 08:30;56,9
2018-08-30 08:45;53,65
2018-08-30 09:00;49,3
2018-08-30 09:15;48,3
2018-08-30 09:30;57,4
2018-08-30 09:45;55,3
2018-08-30 10:00;62,95
2018-08-30 10:15;52,75
2018-08-30 10:30;69,2
2018-08-30 10:45;58,3
2018-08-30 11:00;64,15
2018-08-30 11:15;72,35
2018-08-30 11:30;57,9
2018-08-30 11:45;66,5
2018-08-30 12:00;58,3
2018-08-30 12:15;73,1
2018-08-30 12:30;72,9
2018-08-30 12:45;59,7
2018-08-30 13:00;74,65
2018-08-30 13:15;59,05
2018-08-30 13:30;62,35
2018-08-30 13:45;74,2
2018-08-30 14:00;58,1
2018-08-30 14:15;64,6
2018-08-30 14:30;62,6
2018-08-30 14:45;71,85
2018-08-30 15:00;78,15
2018-08-30 15:15;59,15
2018-08-30 15:30;70,5
2018-08-30 15:45;75,35
2018-08-30 16:00;57,9
2018-08-30 16:15;62,55
2018-08-30 16:30;57,9
2018-08-30 16:45;65,9
2018-08-30 17:00;62,4
2018-08-30 17:15;60,6
2018-08-30 17:30;49
2018-08-30 17:45;44,2
2018-08-30 18:00;38,1
2018-08-30 18:15;34,8
2018-08-30 18:30;36,7
2018-08-30 18:45;30,8
2018-08-30 19:00;25,5
2018-08-30 19:15;22,35
2018-08-30 19:30;21,7
2018-08-30 19:45;23,1
2018-08-30 20:00;16,85
2018-08-30 20:15;14,45
2018-08-30 20:30;15,15
2018-08-30 20:45;16,4
2018-08-30 21:00;21
2018-08-30 21:15;19,6
2018-08-30 21:30;12,5
2018-08-30 21:45;13,8
2018-08-30 22:00;11
2018-08-30 22:15;3,2
2018-08-30 22:30;4,85
2018-08-30 22:45;5,45
2018-08-30 23:00;8,15
2018-08-30 23:15;10,3
2018-08-30 23:30;9,35
2018-08-30 23:45;7,8
2018-08-31 00:00;0
2018-08-31 00:15;0
2018-08-31 00:30;0
2018-08-31 00:45;0
2018-08-31 01:00;0
2018-08-31 01:15;0
2018-08-31 01:30;0
2018-08-31 01:45;0
2018-08-31 02:00;0
2018-08-31 02:15;3,8
2018-08-31 02:30;8,3
2018-08-31 02:45;8,6
2018-08-31 03:00;10,1
2018-08-31 03:15;10,3
2018-08-31 03:30;11
2018-08-31 03:45;11,2
2018-08-31 04:00;12,15
2018-08-31 04:15;10,75
2018-08-31 04:30;10,75
2018-08-31 04:45;25,85
2018-08-31 05:00;29,25
2018-08-31 05:15;24,4
2018-08-31 05:30;23,25
2018-08-31 05:45;19,25
2018-08-31 06:00;19,45
2018-08-31 06:15;17,45
2018-08-31 06:30;16,45
2018-08-31 06:45;22,9
2018-08-31 07:00;27,5
2018-08-31 07:15;26,3
2018-08-31 07:30;52,5
2018-08-31 07:45;51,8
2018-08-31 08:00;52,7
2018-08-31 08:15;37,8
2018-08-31 08:30;51,1
2018-08-31 08:45;51,8
2018-08-31 09:00;61,9
2018-08-31 09:15;48,15
2018-08-31 09:30;53,95
2018-08-31 09:45;59,1
2018-08-31 10:00;59,7
2018-08-31 10:15;66,2
2018-08-31 10:30;66,45
2018-08-31 10:45;72,75
2018-08-31 11:00;77,85
2018-08-31 11:15;72,75
2018-08-31 11:30;69,65
2018-08-31 11:45;69,05
2018-08-31 12:00;78,2
2018-08-31 12:15;68,8
2018-08-31 12:30;78,6
2018-08-31 12:45;66,65
2018-08-31 13:00;77,1
2018-08-31 13:15;74,35
2018-08-31 13:30;76,4
2018-08-31 13:45;75,65
2018-08-31 14:00;74,45
2018-08-31 14:15;75,35
2018-08-31 14:30;74,65
2018-08-31 14:45;73,05
2018-08-31 15:00;76,55
2018-08-31 15:15;73
2018-08-31 15:30;72,4
2018-08-31 15:45;69,25
2018-08-31 16:00;68,9
2018-08-31 16:15;69,6
2018-08-31 16:30;70,15
2018-08-31 16:45;67
2018-08-31 17:00;65,5
2018-08-31 17:15;61,5
2018-08-31 17:30;62,2
2018-08-31 17:45;59,4
2018-08-31 18:00;57,75
2018-08-31 18:15;56,1
2018-08-31 18:30;37,65
2018-08-31 18:45;44,05
2018-08-31 19:00;40,75
2018-08-31 19:15;32,7
2018-08-31 19:30;27,15
2018-08-31 19:45;20,95
2018-08-31 20:00;21,5
2018-08-31 20:15;21,8
2018-08-31 20:30;21,4
2018-08-31 20:45;19,4
2018-08-31 21:00;18,15
2018-08-31 21:15;20,9
2018-08-31 21:30;22,7
2018-08-31 21:45;18,35
2018-08-31 22:00;17,9
2018-08-31 22:15;16,2
2018-08-31 22:30;15
2018-08-31 22:45;6,35
2018-08-31 23:00;2,05
2018-08-31 23:15;1,1
2018-08-31 23:30;1,4
2018-08-31 23:45;1,15
2018-09-01 00:00;1,1
2018-09-01 00:15;0,7
2018-09-01 00:30;0,75
2018-09-01 00:45;0,85
2018-09-01 01:00;0,8
2018-09-01 01:15;0,05
2018-09-01 01:30;0
2018-09-01 01:45;0,25
2018-09-01 02:00;0,35
2018-09-01 02:15;0,35
2018-09-01 02:30;0,6
2018-09-01 02:45;0,85
2018-09-01 03:00;1,1
2018-09-01 03:15;1,1
2018-09-01 03:30;2,8
2018-09-01 03:45;2,4
2018-09-01 04:00;1,7
2018-09-01 04:15;2,7
2018-09-01 04:30;2,8
2018-09-01 04:45;1,8
2018-09-01 05:00;3,4
2018-09-01 05:15;3,15
2018-09-01 05:30;2,4
2018-09-01 05:45;3,95
2018-09-01 06:00;3,9
2018-09-01 06:15;1,45
2018-09-01 06:30;2,05
2018-09-01 06:45;2,3
2018-09-01 07:00;1,3
2018-09-01 07:15;1
2018-09-01 07:30;0,6
2018-09-01 07:45;0
2018-09-01 08:00;0
2018-09-01 08:15;0,3
2018-09-01 08:30;4,2
2018-09-01 08:45;9,65
2018-09-01 09:00;10,65
2018-09-01 09:15;5,4
2018-09-01 09:30;6,75
2018-09-01 09:45;7,25
2018-09-01 10:00;8,6
2018-09-01 10:15;7,45
2018-09-01 10:30;7,1
2018-09-01 10:45;36,5
2018-09-01 11:00;30,3
2018-09-01 11:15;2,5
2018-09-01 11:30;4,85
2018-09-01 11:45;5,55
2018-09-01 12:00;7,85
2018-09-01 12:15;8,7
2018-09-01 12:30;6,4
2018-09-01 12:45;6,8
2018-09-01 13:00;10
2018-09-01 13:15;10,5
2018-09-01 13:30;2,05
2018-09-01 13:45;4,45
2018-09-01 14:00;8,3
2018-09-01 14:15;8,8
2018-09-01 14:30;9,4
2018-09-01 14:45;9,35
2018-09-01 15:00;10,65
2018-09-01 15:15;9,05
2018-09-01 15:30;10,9
2018-09-01 15:45;10,65
2018-09-01 16:00;9,2
2018-09-01 16:15;10,85
2018-09-01 16:30;9,7
2018-09-01 16:45;10,7
2018-09-01 17:00;9,35
2018-09-01 17:15;9,3
2018-09-01 17:30;8,8
2018-09-01 17:45;6,25
2018-09-01 18:00;8,3
2018-09-01 18:15;7,4
2018-09-01 18:30;6,75
2018-09-01 18:45;6,75
2018-09-01 19:00;6,55
2018-09-01 19:15;8,9
2018-09-01 19:30;8,2
2018-09-01 19:45;10,3
2018-09-01 20:00;10,1
2018-09-01 20:15;9,4
2018-09-01 20:30;10,65
2018-09-01 20:45;10,15
2018-09-01 21:00;12
2018-09-01 21:15;12,2
2018-09-01 21:30;8,85
2018-09-01 21:45;9,5
2018-09-01 22:00;8,85
2018-09-01 22:15;7,4
2018-09-01 22:30;8
2018-09-01 22:45;8,6
2018-09-01 23:00;10,25
2018-09-01 23:15;11
2018-09-01 23:30;10,35
2018-09-01 23:45;10,6
2018-09-02 00:00;6,7
2018-09-02 00:15;4,45
2018-09-02 00:30;5,05
2018-09-02 00:45;5,3
2018-09-02 01:00;4,6
2018-09-02 01:15;6,7
2018-09-02 01:30;6,65
2018-09-02 01:45;3,25
2018-09-02 02:00;0
2018-09-02 02:15;0,1
2018-09-02 02:30;0,35
2018-09-02 02:45;0,1
2018-09-02 03:00;0,3
2018-09-02 03:15;0,65
2018-09-02 03:30;1,15
2018-09-02 03:45;1,9
2018-09-02 04:00;1,25
2018-09-02 04:15;0,75
2018-09-02 04:30;1,75
2018-09-02 04:45;1,7
2018-09-02 05:00;0,6
2018-09-02 05:15;1,2
2018-09-02 05:30;1,7
2018-09-02 05:45;1
2018-09-02 06:00;2,3
2018-09-02 06:15;0,2
2018-09-02 06:30;0,3
2018-09-02 06:45;0,45
2018-09-02 07:00;1,8
2018-09-02 07:15;1,5
2018-09-02 07:30;0,55
2018-09-02 07:45;1,35
2018-09-02 08:00;4,2
2018-09-02 08:15;3,35
2018-09-02 08:30;3,3
2018-09-02 08:45;2,9
2018-09-02 09:00;4
2018-09-02 09:15;2,65
2018-09-02 09:30;2,45
2018-09-02 09:45;8,95
2018-09-02 10:00;6,85
2018-09-02 10:15;9,7
2018-09-02 10:30;10,85
2018-09-02 10:45;9,85
2018-09-02 11:00;8,6
2018-09-02 11:15;6,6
2018-09-02 11:30;7,4
2018-09-02 11:45;9,4
2018-09-02 12:00;8,7
2018-09-02 12:15;11,55
2018-09-02 12:30;11,15
2018-09-02 12:45;13,05
2018-09-02 13:00;11,55
2018-09-02 13:15;11,4
2018-09-02 13:30;11,7
2018-09-02 13:45;11,6
2018-09-02 14:00;10,9
2018-09-02 14:15;10,8
2018-09-02 14:30;8,75
2018-09-02 14:45;8,9
2018-09-02 15:00;7,9
2018-09-02 15:15;9,85
2018-09-02 15:30;8,9
2018-09-02 15:45;9,65
2018-09-02 16:00;10,35
2018-09-02 16:15;8,4
2018-09-02 16:30;8
2018-09-02 16:45;8,5
2018-09-02 17:00;6,6
2018-09-02 17:15;7,2
2018-09-02 17:30;7,45
2018-09-02 17:45;8,3
2018-09-02 18:00;9,75
2018-09-02 18:15;7,65
2018-09-02 18:30;11,1
2018-09-02 18:45;14,75
2018-09-02 19:00;14,05
2018-09-02 19:15;15,05
2018-09-02 19:30;15,35
2018-09-02 19:45;16,85
2018-09-02 20:00;18,25
2018-09-02 20:15;14,4
2018-09-02 20:30;15,15
2018-09-02 20:45;15,4
2018-09-02 21:00;15,3
2018-09-02 21:15;15,85
2018-09-02 21:30;14,25
2018-09-02 21:45;13,6
2018-09-02 22:00;12,5
2018-09-02 22:15;11,1
2018-09-02 22:30;12,25
2018-09-02 22:45;11,95
2018-09-02 23:00;14,4
2018-09-02 23:15;9,7
2018-09-02 23:30;7,25
2018-09-02 23:45;8,85

